Time,TemperatureF,DewpointF,PressureIn,WindDirection,WindDirectionDegrees,WindSpeedMPH,WindSpeedGustMPH,Humidity,HourlyPrecipIn,Conditions,Clouds,dailyrainin,SoftwareType,DateUTC
2013-02-19 00:00:00,36.7,10.9,30.21,SSW,205,0.0,0.0,34,0.00,CLR,OVC,0.00,WeatherDisplay:10.37,2013-02-19 05:00:00,
2013-02-19 00:05:00,36.7,10.9,30.21,SSW,210,0.0,0.0,34,0.00,CLR,OVC,0.00,WeatherDisplay:10.37,2013-02-19 05:05:00,
2013-02-19 00:10:00,36.7,10.9,30.21,SW,217,0.0,4.0,34,0.00,CLR,OVC,0.00,WeatherDisplay:10.37,2013-02-19 05:10:00,
2013-02-19 00:20:00,36.7,12.2,30.21,SSW,204,0.0,5.0,36,0.00,CLR,OVC,0.00,WeatherDisplay:10.37,2013-02-19 05:20:00,
2013-02-19 00:30:00,36.3,12.5,30.21,WSW,244,0.0,0.0,37,0.00,CLR,OVC,0.00,WeatherDisplay:10.37,2013-02-19 05:30:00,
2013-02-19 00:40:00,36.1,12.3,30.21,SSW,204,0.0,0.0,37,0.00,CLR,OVC,0.00,WeatherDisplay:10.37,2013-02-19 05:40:00,
2013-02-19 00:45:00,36.0,12.2,30.21,SSE,166,0.0,0.0,37,0.00,CLR,OVC,0.00,WeatherDisplay:10.37,2013-02-19 05:45:00,
2013-02-19 00:50:00,36.0,12.8,30.19,SSW,198,0.0,0.0,38,0.00,CLR,OVC,0.00,WeatherDisplay:10.37,2013-02-19 05:50:00,
2013-02-19 01:00:00,35.6,12.5,30.18,SSW,210,0.0,0.0,38,0.00,CLR,OVC,0.00,WeatherDisplay:10.37,2013-02-19 06:00:00,
2013-02-19 01:05:00,35.6,12.5,30.19,SSW,213,0.0,0.0,38,0.00,CLR,OVC,0.00,WeatherDisplay:10.37,2013-02-19 06:05:00,
2013-02-19 01:10:00,35.2,12.7,30.21,SW,219,0.0,0.0,39,0.00,CLR,OVC,0.00,WeatherDisplay:10.37,2013-02-19 06:10:00,
2013-02-19 01:20:00,34.7,12.2,30.18,West,270,0.0,0.0,39,0.00,CLR,OVC,0.00,WeatherDisplay:10.37,2013-02-19 06:20:00,
2013-02-19 01:30:00,34.3,12.5,30.18,WSW,243,0.0,0.0,40,0.00,CLR,OVC,0.00,WeatherDisplay:10.37,2013-02-19 06:30:00,
2013-02-19 01:40:00,34.0,12.2,30.18,South,170,0.0,0.0,40,0.00,CLR,OVC,0.00,WeatherDisplay:10.37,2013-02-19 06:40:00,
2013-02-19 01:50:00,33.8,12.0,30.18,South,170,0.0,0.0,40,0.00,CLR,OVC,0.00,WeatherDisplay:10.37,2013-02-19 06:50:00,
2013-02-19 01:55:00,33.6,11.8,30.18,South,171,0.0,0.0,40,0.00,CLR,OVC,0.00,WeatherDisplay:10.37,2013-02-19 06:55:00,
2013-02-19 02:05:00,33.3,12.6,30.18,South,171,0.0,0.0,42,0.00,CLR,OVC,0.00,WeatherDisplay:10.37,2013-02-19 07:05:00,
2013-02-19 02:10:00,33.1,12.4,30.18,South,191,0.0,0.0,42,0.00,CLR,OVC,0.00,WeatherDisplay:10.37,2013-02-19 07:10:00,
2013-02-19 02:20:00,32.7,12.1,30.16,SSW,202,0.0,0.0,42,0.00,CLR,OVC,0.00,WeatherDisplay:10.37,2013-02-19 07:20:00,
2013-02-19 02:30:00,32.7,12.1,30.15,SE,144,0.0,0.0,42,0.00,CLR,OVC,0.00,WeatherDisplay:10.37,2013-02-19 07:30:00,
2013-02-19 02:35:00,32.7,12.1,30.15,SE,146,0.0,0.0,42,0.00,CLR,OVC,0.00,WeatherDisplay:10.37,2013-02-19 07:35:00,
2013-02-19 02:40:00,32.7,12.1,30.15,SE,146,0.0,0.0,42,0.00,CLR,OVC,0.00,WeatherDisplay:10.37,2013-02-19 07:40:00,
2013-02-19 02:50:00,32.7,12.1,30.15,SE,146,0.0,0.0,42,0.00,CLR,OVC,0.00,WeatherDisplay:10.37,2013-02-19 07:50:00,
2013-02-19 03:00:00,32.5,12.5,30.15,SE,146,0.0,0.0,43,0.00,CLR,OVC,0.00,WeatherDisplay:10.37,2013-02-19 08:00:00,
2013-02-19 03:05:00,32.5,12.5,30.13,SE,146,0.0,0.0,43,0.00,CLR,OVC,0.00,WeatherDisplay:10.37,2013-02-19 08:05:00,
2013-02-19 03:10:00,32.4,12.3,30.12,SE,146,0.0,0.0,43,0.00,CLR,OVC,0.00,WeatherDisplay:10.37,2013-02-19 08:10:00,
2013-02-19 03:15:00,32.4,12.3,30.12,SSE,154,0.0,0.0,43,0.00,CLR,OVC,0.00,WeatherDisplay:10.37,2013-02-19 08:15:00,
2013-02-19 03:20:00,32.5,13.0,30.12,South,176,0.0,0.0,44,0.00,CLR,OVC,0.00,WeatherDisplay:10.37,2013-02-19 08:20:00,
2013-02-19 03:30:00,32.5,13.0,30.12,South,180,0.0,0.0,44,0.00,CLR,OVC,0.00,WeatherDisplay:10.37,2013-02-19 08:30:00,
2013-02-19 03:40:00,32.5,13.0,30.12,WSW,237,0.0,0.0,44,0.00,CLR,OVC,0.00,WeatherDisplay:10.37,2013-02-19 08:40:00,
2013-02-19 03:50:00,32.4,12.8,30.10,SSW,198,0.0,0.0,44,0.00,CLR,OVC,0.00,WeatherDisplay:10.37,2013-02-19 08:50:00,
2013-02-19 04:00:00,32.5,13.0,30.09,SSW,207,0.0,0.0,44,0.00,CLR,OVC,0.00,WeatherDisplay:10.37,2013-02-19 09:00:00,
2013-02-19 04:05:00,32.7,13.2,30.09,SSW,206,0.0,0.0,44,0.00,CLR,OVC,0.00,WeatherDisplay:10.37,2013-02-19 09:05:00,
2013-02-19 04:15:00,33.4,14.3,30.09,SSW,208,0.0,0.0,45,0.00,CLR,OVC,0.00,WeatherDisplay:10.37,2013-02-19 09:15:00,
2013-02-19 04:20:00,33.6,14.5,30.09,WSW,241,0.0,0.0,45,0.00,CLR,OVC,0.00,WeatherDisplay:10.37,2013-02-19 09:20:00,
2013-02-19 04:30:00,33.8,14.7,30.09,West,279,0.0,0.0,45,0.00,CLR,OVC,0.00,WeatherDisplay:10.37,2013-02-19 09:30:00,
2013-02-19 04:40:00,34.2,15.1,30.09,SW,234,0.0,0.0,45,0.00,CLR,OVC,0.00,WeatherDisplay:10.37,2013-02-19 09:40:00,
2013-02-19 04:50:00,34.5,14.8,30.09,SW,231,0.0,0.0,44,0.00,CLR,OVC,0.00,WeatherDisplay:10.37,2013-02-19 09:50:00,
2013-02-19 05:00:00,34.9,15.7,30.09,SSW,199,0.0,0.0,45,0.00,CLR,OVC,0.00,WeatherDisplay:10.37,2013-02-19 10:00:00,
2013-02-19 05:05:00,35.1,15.8,30.09,SSW,204,0.0,0.0,45,0.00,CLR,OVC,0.00,WeatherDisplay:10.37,2013-02-19 10:05:00,
2013-02-19 05:10:00,35.3,16.0,30.09,SW,229,0.0,0.0,45,0.00,CLR,OVC,0.00,WeatherDisplay:10.37,2013-02-19 10:10:00,
2013-02-19 05:20:00,35.8,16.5,30.09,WSW,241,0.0,0.0,45,0.00,CLR,OVC,0.00,WeatherDisplay:10.37,2013-02-19 10:20:00,
2013-02-19 05:30:00,36.0,16.1,30.09,WSW,244,0.0,0.0,44,0.00,CLR,OVC,0.00,WeatherDisplay:10.37,2013-02-19 10:30:00,
2013-02-19 05:35:00,36.1,16.3,30.09,WSW,244,0.0,0.0,44,0.00,CLR,OVC,0.00,WeatherDisplay:10.37,2013-02-19 10:35:00,
2013-02-19 05:40:00,36.3,16.5,30.09,SW,218,0.0,0.0,44,0.00,CLR,OVC,0.00,WeatherDisplay:10.37,2013-02-19 10:40:00,
2013-02-19 05:50:00,36.5,16.6,30.09,SW,228,0.0,0.0,44,0.00,CLR,OVC,0.00,WeatherDisplay:10.37,2013-02-19 10:50:00,
2013-02-19 06:00:00,36.9,17.0,30.09,SW,218,0.0,0.0,44,0.00,CLR,OVC,0.00,WeatherDisplay:10.37,2013-02-19 11:00:00,
2013-02-19 06:05:00,36.9,16.4,30.09,South,180,0.0,0.0,43,0.00,CLR,OVC,0.00,WeatherDisplay:10.37,2013-02-19 11:05:00,
2013-02-19 06:10:00,36.9,16.5,30.09,South,185,0.0,0.0,43,0.00,CLR,OVC,0.00,WeatherDisplay:10.37,2013-02-19 11:10:00,
2013-02-19 06:20:00,37.0,16.6,30.09,WSW,242,0.0,0.0,43,0.00,CLR,OVC,0.00,WeatherDisplay:10.37,2013-02-19 11:20:00,
2013-02-19 06:25:00,37.1,16.7,30.09,WSW,244,0.0,0.0,43,0.00,CLR,OVC,0.00,WeatherDisplay:10.37,2013-02-19 11:25:00,
2013-02-19 06:30:00,37.2,17.3,30.09,WSW,244,0.0,0.0,44,0.00,CLR,OVC,0.00,WeatherDisplay:10.37,2013-02-19 11:30:00,
2013-02-19 06:40:00,37.2,17.3,30.09,SW,230,0.0,0.0,44,0.00,CLR,OVC,0.00,WeatherDisplay:10.37,2013-02-19 11:40:00,
2013-02-19 06:50:00,37.4,17.4,30.09,SSE,155,0.0,0.0,44,0.00,CLR,OVC,0.00,WeatherDisplay:10.37,2013-02-19 11:50:00,
2013-02-19 07:00:00,37.4,17.4,30.09,SW,228,0.0,0.0,44,0.00,CLR,OVC,0.00,WeatherDisplay:10.37,2013-02-19 12:00:00,
2013-02-19 07:05:00,37.6,17.6,30.07,WSW,248,0.0,0.0,44,0.00,CLR,OVC,0.00,WeatherDisplay:10.37,2013-02-19 12:05:00,
2013-02-19 07:10:00,37.6,17.1,30.06,SW,225,0.0,0.0,43,0.00,CLR,OVC,0.00,WeatherDisplay:10.37,2013-02-19 12:10:00,
2013-02-19 07:15:00,37.6,17.6,30.06,SSW,212,0.0,0.0,44,0.00,CLR,OVC,0.00,WeatherDisplay:10.37,2013-02-19 12:15:00,
2013-02-19 07:20:00,37.8,17.8,30.06,SSW,203,0.0,4.0,44,0.00,CLR,OVC,0.00,WeatherDisplay:10.37,2013-02-19 12:20:00,
2013-02-19 07:30:00,37.8,17.8,30.06,South,180,0.0,0.0,44,0.00,CLR,OVC,0.00,WeatherDisplay:10.37,2013-02-19 12:30:00,
2013-02-19 07:40:00,38.1,18.1,30.06,SW,228,0.0,0.0,44,0.00,CLR,OVC,0.00,WeatherDisplay:10.37,2013-02-19 12:40:00,
2013-02-19 07:50:00,38.3,18.3,30.06,SSW,198,0.0,0.0,44,0.00,CLR,OVC,0.00,WeatherDisplay:10.37,2013-02-19 12:50:00,
2013-02-19 08:00:00,38.3,19.3,30.06,SW,229,0.0,0.0,46,0.00,CLR,OVC,0.00,WeatherDisplay:10.37,2013-02-19 13:00:00,
2013-02-19 08:05:00,38.3,20.3,30.08,SW,230,0.0,0.0,48,0.00,CLR,OVC,0.00,WeatherDisplay:10.37,2013-02-19 13:05:00,
2013-02-19 08:10:00,38.0,20.5,30.09,SW,230,0.0,0.0,49,0.00,CLR,OVC,0.00,WeatherDisplay:10.37,2013-02-19 13:10:00,
2013-02-19 08:20:00,37.4,20.9,30.08,WNW,301,0.0,0.0,51,0.04,RA,OVC,0.04,WeatherDisplay:10.37,2013-02-19 13:20:00,
2013-02-19 08:30:00,37.2,21.6,30.06,WNW,299,0.0,0.0,53,0.00,,OVC,0.04,WeatherDisplay:10.37,2013-02-19 13:30:00,
2013-02-19 08:40:00,37.2,22.1,30.06,WNW,289,0.0,0.0,54,0.00,RA,OVC,0.08,WeatherDisplay:10.37,2013-02-19 13:40:00,
2013-02-19 08:45:00,37.0,22.4,30.06,WNW,289,0.0,0.0,55,0.00,,OVC,0.08,WeatherDisplay:10.37,2013-02-19 13:45:00,
2013-02-19 08:50:00,37.0,22.4,30.06,WNW,289,0.0,0.0,55,0.00,CLR,OVC,0.08,WeatherDisplay:10.37,2013-02-19 13:50:00,
2013-02-19 09:00:00,37.0,23.2,30.06,South,171,0.0,0.0,57,0.04,RA,OVC,0.12,WeatherDisplay:10.37,2013-02-19 14:00:00,
2013-02-19 09:05:00,37.2,23.3,30.06,South,188,0.0,0.0,57,0.00,RA,OVC,0.12,WeatherDisplay:10.37,2013-02-19 14:05:00,
2013-02-19 09:10:00,37.4,24.0,30.06,WSW,252,0.0,0.0,58,0.00,CLR,OVC,0.12,WeatherDisplay:10.37,2013-02-19 14:10:00,
2013-02-19 09:20:00,37.7,24.7,30.06,NNW,348,0.0,0.0,59,0.00,CLR,OVC,0.12,WeatherDisplay:10.37,2013-02-19 14:20:00,
2013-02-19 09:25:00,37.8,25.1,30.06,North,4,0.0,0.0,60,0.00,CLR,OVC,0.12,WeatherDisplay:10.37,2013-02-19 14:25:00,
2013-02-19 09:30:00,37.9,25.7,30.06,South,181,0.0,0.0,61,0.00,CLR,OVC,0.12,WeatherDisplay:10.37,2013-02-19 14:30:00,
2013-02-19 09:40:00,38.1,26.2,30.06,West,263,0.0,0.0,62,0.00,CLR,OVC,0.12,WeatherDisplay:10.37,2013-02-19 14:40:00,
2013-02-19 09:50:00,38.1,26.6,30.05,SW,225,0.0,0.0,63,0.04,RA,OVC,0.16,WeatherDisplay:10.37,2013-02-19 14:50:00,
2013-02-19 10:00:00,38.3,27.2,30.03,WSW,245,0.0,0.0,64,0.00,CLR,OVC,0.16,WeatherDisplay:10.37,2013-02-19 15:00:00,
2013-02-19 10:05:00,38.3,27.2,30.03,West,267,0.0,0.0,64,0.00,CLR,OVC,0.16,WeatherDisplay:10.37,2013-02-19 15:05:00,
2013-02-19 10:10:00,38.3,27.6,30.03,West,267,0.0,0.0,65,0.00,CLR,OVC,0.16,WeatherDisplay:10.37,2013-02-19 15:10:00,
2013-02-19 10:20:00,38.3,27.9,30.03,SW,230,0.0,0.0,66,0.00,CLR,OVC,0.16,WeatherDisplay:10.37,2013-02-19 15:20:00,
2013-02-19 10:30:00,38.4,28.4,30.03,West,265,0.0,0.0,67,0.00,CLR,OVC,0.16,WeatherDisplay:10.37,2013-02-19 15:30:00,
2013-02-19 10:40:00,38.5,28.8,30.03,South,177,0.0,0.0,68,0.00,CLR,OVC,0.16,WeatherDisplay:10.37,2013-02-19 15:40:00,
2013-02-19 10:50:00,38.7,29.0,30.01,SSW,200,0.0,0.0,68,0.00,CLR,OVC,0.16,WeatherDisplay:10.37,2013-02-19 15:50:00,
2013-02-19 11:00:00,38.8,29.9,30.00,West,278,0.0,0.0,70,0.00,CLR,OVC,0.16,WeatherDisplay:10.37,2013-02-19 16:00:00,
2013-02-19 11:05:00,39.0,30.1,30.00,SW,230,1.0,7.0,70,0.00,CLR,OVC,0.16,WeatherDisplay:10.37,2013-02-19 16:05:00,
2013-02-19 11:10:00,39.2,30.6,30.00,SW,214,0.0,2.0,71,0.00,CLR,OVC,0.16,WeatherDisplay:10.37,2013-02-19 16:10:00,
2013-02-19 11:20:00,39.6,30.9,30.00,West,265,0.0,0.0,71,0.00,CLR,OVC,0.16,WeatherDisplay:10.37,2013-02-19 16:20:00,
2013-02-19 11:30:00,39.9,31.3,30.00,WSW,257,0.0,5.0,71,0.00,CLR,OVC,0.16,WeatherDisplay:10.37,2013-02-19 16:30:00,
2013-02-19 11:40:00,40.5,32.1,30.00,SW,221,0.0,3.0,72,0.00,CLR,OVC,0.16,WeatherDisplay:10.37,2013-02-19 16:40:00,
2013-02-19 11:50:00,40.8,32.8,30.00,West,280,0.0,0.0,73,0.00,RA,OVC,0.20,WeatherDisplay:10.37,2013-02-19 16:50:00,
2013-02-19 12:00:00,41.1,33.1,30.00,West,275,0.0,0.0,73,0.00,CLR,OVC,0.20,WeatherDisplay:10.37,2013-02-19 17:00:00,
2013-02-19 12:05:00,41.2,33.2,30.00,West,266,0.0,4.0,73,0.00,CLR,OVC,0.20,WeatherDisplay:10.37,2013-02-19 17:05:00,
2013-02-19 12:10:00,41.4,33.7,30.00,West,259,3.0,5.0,74,0.00,CLR,OVC,0.20,WeatherDisplay:10.37,2013-02-19 17:10:00,
2013-02-19 12:20:00,41.7,34.0,30.00,SW,225,0.0,6.0,74,0.00,CLR,OVC,0.20,WeatherDisplay:10.37,2013-02-19 17:20:00,
2013-02-19 12:30:00,42.2,34.8,29.97,WSW,249,0.0,7.0,75,0.00,CLR,OVC,0.20,WeatherDisplay:10.37,2013-02-19 17:30:00,
2013-02-19 12:35:00,42.3,34.9,29.97,WSW,253,0.0,8.0,75,0.00,CLR,OVC,0.20,WeatherDisplay:10.37,2013-02-19 17:35:00,
2013-02-19 12:40:00,42.4,35.1,29.97,WSW,247,0.0,5.0,75,0.00,CLR,OVC,0.20,WeatherDisplay:10.37,2013-02-19 17:40:00,
2013-02-19 12:50:00,42.9,35.9,29.96,WSW,258,0.0,4.0,76,0.00,CLR,OVC,0.20,WeatherDisplay:10.37,2013-02-19 17:50:00,
2013-02-19 13:00:00,43.2,36.1,29.94,West,262,2.0,6.0,76,0.00,CLR,OVC,0.20,WeatherDisplay:10.37,2013-02-19 18:00:00,
2013-02-19 13:05:00,43.3,36.3,29.94,WSW,251,2.0,6.0,76,0.00,CLR,OVC,0.20,WeatherDisplay:10.37,2013-02-19 18:05:00,
2013-02-19 13:10:00,43.5,36.5,29.94,WSW,253,1.0,7.0,76,0.00,CLR,OVC,0.20,WeatherDisplay:10.37,2013-02-19 18:10:00,
2013-02-19 13:20:00,43.9,36.8,29.94,WSW,247,1.0,7.0,76,0.00,CLR,OVC,0.20,WeatherDisplay:10.37,2013-02-19 18:20:00,
2013-02-19 13:30:00,44.4,37.3,29.94,WSW,249,0.0,5.0,76,0.00,CLR,OVC,0.20,WeatherDisplay:10.37,2013-02-19 18:30:00,
2013-02-19 13:40:00,44.8,38.0,29.91,West,260,5.0,10.0,77,0.00,CLR,OVC,0.20,WeatherDisplay:10.37,2013-02-19 18:40:00,
2013-02-19 13:50:00,45.1,38.4,29.91,WSW,256,3.0,7.0,77,0.00,CLR,OVC,0.20,WeatherDisplay:10.37,2013-02-19 18:50:00,
2013-02-19 14:00:00,45.5,38.7,29.91,WSW,254,0.0,4.0,77,0.00,CLR,OVC,0.20,WeatherDisplay:10.37,2013-02-19 19:00:00,
2013-02-19 14:10:00,45.9,39.1,29.91,SW,236,0.0,5.0,77,0.00,CLR,OVC,0.20,WeatherDisplay:10.37,2013-02-19 19:10:00,
2013-02-19 14:15:00,45.9,39.1,29.91,WSW,242,3.0,7.0,77,0.00,CLR,OVC,0.20,WeatherDisplay:10.37,2013-02-19 19:15:00,
2013-02-19 14:20:00,45.9,39.1,29.91,WSW,258,0.0,6.0,77,0.00,CLR,OVC,0.20,WeatherDisplay:10.37,2013-02-19 19:20:00,
2013-02-19 14:25:00,46.2,39.7,29.91,West,262,0.0,5.0,78,0.00,CLR,OVC,0.20,WeatherDisplay:10.37,2013-02-19 19:25:00,
2013-02-19 14:30:00,46.4,39.9,29.91,West,277,2.0,7.0,78,0.00,CLR,OVC,0.20,WeatherDisplay:10.37,2013-02-19 19:30:00,
2013-02-19 14:40:00,46.2,39.7,29.91,West,260,2.0,7.0,78,0.00,CLR,OVC,0.20,WeatherDisplay:10.37,2013-02-19 19:40:00,
2013-02-19 14:50:00,46.2,39.7,29.89,West,267,1.0,5.0,78,0.00,CLR,OVC,0.20,WeatherDisplay:10.37,2013-02-19 19:50:00,
2013-02-19 15:00:00,46.2,39.7,29.88,West,265,1.0,7.0,78,0.00,CLR,OVC,0.20,WeatherDisplay:10.37,2013-02-19 20:00:00,
2013-02-19 15:05:00,46.2,39.7,29.88,West,271,0.0,5.0,78,0.00,CLR,OVC,0.20,WeatherDisplay:10.37,2013-02-19 20:05:00,
2013-02-19 15:10:00,46.3,39.8,29.88,WSW,246,0.0,5.0,78,0.00,CLR,OVC,0.20,WeatherDisplay:10.37,2013-02-19 20:10:00,
2013-02-19 15:20:00,46.2,39.7,29.88,West,266,5.0,7.0,78,0.00,CLR,OVC,0.20,WeatherDisplay:10.37,2013-02-19 20:20:00,
2013-02-19 15:30:00,46.2,39.4,29.88,WSW,246,1.0,9.0,77,0.00,CLR,OVC,0.20,WeatherDisplay:10.37,2013-02-19 20:30:00,
2013-02-19 15:35:00,46.4,39.6,29.88,WSW,247,5.0,7.0,77,0.00,CLR,OVC,0.20,WeatherDisplay:10.37,2013-02-19 20:35:00,
2013-02-19 15:40:00,46.4,39.6,29.88,West,261,2.0,8.0,77,0.00,CLR,OVC,0.20,WeatherDisplay:10.37,2013-02-19 20:40:00,
2013-02-19 15:50:00,46.4,39.6,29.88,West,263,3.0,7.0,77,0.00,CLR,OVC,0.20,WeatherDisplay:10.37,2013-02-19 20:50:00,
2013-02-19 16:00:00,46.4,39.2,29.88,WSW,253,0.0,5.0,76,0.00,CLR,OVC,0.20,WeatherDisplay:10.37,2013-02-19 21:00:00,
2013-02-19 16:05:00,46.4,39.2,29.88,WSW,249,2.0,8.0,76,0.00,CLR,OVC,0.20,WeatherDisplay:10.37,2013-02-19 21:05:00,
2013-02-19 16:10:00,46.4,39.2,29.88,West,274,1.0,7.0,76,0.00,CLR,OVC,0.20,WeatherDisplay:10.37,2013-02-19 21:10:00,
2013-02-19 16:20:00,46.4,39.2,29.88,West,266,0.0,6.0,76,0.00,CLR,OVC,0.20,WeatherDisplay:10.37,2013-02-19 21:20:00,
2013-02-19 16:30:00,46.2,39.1,29.88,WSW,249,1.0,5.0,76,0.00,CLR,OVC,0.20,WeatherDisplay:10.37,2013-02-19 21:30:00,
2013-02-19 16:40:00,46.2,39.1,29.88,West,267,1.0,10.0,76,0.00,CLR,OVC,0.20,WeatherDisplay:10.37,2013-02-19 21:40:00,
2013-02-19 16:50:00,46.2,38.7,29.88,West,265,1.0,5.0,75,0.00,CLR,OVC,0.20,WeatherDisplay:10.37,2013-02-19 21:50:00,
2013-02-19 16:55:00,46.4,38.9,29.88,West,266,1.0,5.0,75,0.00,CLR,OVC,0.20,WeatherDisplay:10.37,2013-02-19 21:55:00,
2013-02-19 17:00:00,46.4,38.9,29.88,West,264,3.0,7.0,75,0.00,CLR,OVC,0.20,WeatherDisplay:10.37,2013-02-19 22:00:00,
2013-02-19 17:05:00,46.6,39.1,29.88,West,264,3.0,7.0,75,0.00,CLR,OVC,0.20,WeatherDisplay:10.37,2013-02-19 22:05:00,
2013-02-19 17:10:00,46.6,38.7,29.88,West,279,0.0,3.0,74,0.00,CLR,OVC,0.20,WeatherDisplay:10.37,2013-02-19 22:10:00,
2013-02-19 17:15:00,46.6,38.7,29.88,West,280,2.0,5.0,74,0.00,CLR,OVC,0.20,WeatherDisplay:10.37,2013-02-19 22:15:00,
2013-02-19 17:20:00,46.6,38.7,29.88,WNW,285,0.0,0.0,74,0.00,CLR,OVC,0.20,WeatherDisplay:10.37,2013-02-19 22:20:00,
2013-02-19 17:30:00,46.6,38.4,29.88,West,271,0.0,5.0,73,0.00,CLR,OVC,0.20,WeatherDisplay:10.37,2013-02-19 22:30:00,
2013-02-19 17:40:00,46.2,37.7,29.88,WNW,283,0.0,0.0,72,0.00,CLR,OVC,0.20,WeatherDisplay:10.37,2013-02-19 22:40:00,
2013-02-19 17:50:00,45.9,37.3,29.89,WSW,250,0.0,0.0,72,0.00,CLR,OVC,0.20,WeatherDisplay:10.37,2013-02-19 22:50:00,
2013-02-19 18:00:00,45.5,37.0,29.91,WSW,252,0.0,0.0,72,0.00,CLR,OVC,0.20,WeatherDisplay:10.37,2013-02-19 23:00:00,
2013-02-19 18:05:00,45.3,36.4,29.91,West,260,0.0,0.0,71,0.00,CLR,OVC,0.20,WeatherDisplay:10.37,2013-02-19 23:05:00,
2013-02-19 18:10:00,45.0,36.1,29.91,West,259,0.0,0.0,71,0.00,CLR,OVC,0.20,WeatherDisplay:10.37,2013-02-19 23:10:00,
2013-02-19 18:20:00,44.4,35.6,29.91,West,259,0.0,0.0,71,0.00,CLR,OVC,0.20,WeatherDisplay:10.37,2013-02-19 23:20:00,
2013-02-19 18:25:00,44.1,35.3,29.91,West,259,0.0,0.0,71,0.00,CLR,OVC,0.20,WeatherDisplay:10.37,2013-02-19 23:25:00,
2013-02-19 18:30:00,43.7,34.9,29.91,West,259,0.0,0.0,71,0.00,CLR,OVC,0.20,WeatherDisplay:10.37,2013-02-19 23:30:00,
2013-02-19 18:40:00,43.0,34.2,29.91,West,259,0.0,0.0,71,0.00,CLR,OVC,0.20,WeatherDisplay:10.37,2013-02-19 23:40:00,
2013-02-19 18:50:00,42.5,33.8,29.91,West,259,0.0,0.0,71,0.00,CLR,OVC,0.20,WeatherDisplay:10.37,2013-02-19 23:50:00,
2013-02-19 19:00:00,42.2,33.8,29.91,West,259,0.0,0.0,72,0.00,CLR,OVC,0.20,WeatherDisplay:10.37,2013-02-20 00:00:00,
2013-02-19 19:05:00,41.9,33.5,29.93,West,259,0.0,0.0,72,0.00,CLR,OVC,0.20,WeatherDisplay:10.37,2013-02-20 00:05:00,
2013-02-19 19:10:00,41.8,33.5,29.94,West,259,0.0,0.0,72,0.00,CLR,OVC,0.20,WeatherDisplay:10.37,2013-02-20 00:10:00,
2013-02-19 19:20:00,41.5,33.2,29.94,West,259,0.0,0.0,72,0.00,CLR,OVC,0.20,WeatherDisplay:10.37,2013-02-20 00:20:00,
2013-02-19 19:25:00,41.4,33.0,29.94,West,259,0.0,0.0,72,0.00,CLR,OVC,0.20,WeatherDisplay:10.37,2013-02-20 00:25:00,
2013-02-19 19:30:00,41.1,32.7,29.94,West,259,0.0,0.0,72,0.00,CLR,OVC,0.20,WeatherDisplay:10.37,2013-02-20 00:30:00,
2013-02-19 19:40:00,40.6,32.3,29.94,West,259,0.0,0.0,72,0.00,CLR,OVC,0.20,WeatherDisplay:10.37,2013-02-20 00:40:00,
2013-02-19 19:50:00,40.1,31.8,29.94,West,259,0.0,0.0,72,0.00,CLR,OVC,0.20,WeatherDisplay:10.37,2013-02-20 00:50:00,
2013-02-19 20:00:00,39.7,31.8,29.94,West,259,0.0,0.0,73,0.00,CLR,OVC,0.20,WeatherDisplay:10.37,2013-02-20 01:00:00,
2013-02-19 20:05:00,39.6,31.6,29.94,West,259,0.0,0.0,73,0.00,CLR,OVC,0.20,WeatherDisplay:10.37,2013-02-20 01:05:00,
2013-02-19 20:10:00,39.4,31.4,29.94,West,259,0.0,0.0,73,0.00,CLR,OVC,0.20,WeatherDisplay:10.37,2013-02-20 01:10:00,
2013-02-19 20:20:00,39.0,31.1,29.94,West,259,0.0,0.0,73,0.00,CLR,OVC,0.20,WeatherDisplay:10.37,2013-02-20 01:20:00,
2013-02-19 20:30:00,38.7,30.7,29.94,West,259,0.0,0.0,73,0.00,CLR,OVC,0.20,WeatherDisplay:10.37,2013-02-20 01:30:00,
2013-02-19 20:35:00,38.7,30.7,29.94,West,259,0.0,0.0,73,0.00,CLR,OVC,0.20,WeatherDisplay:10.37,2013-02-20 01:35:00,
2013-02-19 20:40:00,38.5,30.6,29.94,West,259,0.0,0.0,73,0.00,CLR,OVC,0.20,WeatherDisplay:10.37,2013-02-20 01:40:00,
2013-02-19 20:50:00,38.3,30.7,29.94,West,259,0.0,0.0,74,0.00,CLR,OVC,0.20,WeatherDisplay:10.37,2013-02-20 01:50:00,
2013-02-19 21:00:00,37.9,30.4,29.94,West,259,0.0,0.0,74,0.00,CLR,OVC,0.20,WeatherDisplay:10.37,2013-02-20 02:00:00,
2013-02-19 21:05:00,37.8,30.2,29.94,West,259,0.0,0.0,74,0.00,CLR,OVC,0.20,WeatherDisplay:10.37,2013-02-20 02:05:00,
2013-02-19 21:10:00,37.6,30.0,29.94,West,259,0.0,0.0,74,0.00,CLR,OVC,0.20,WeatherDisplay:10.37,2013-02-20 02:10:00,
2013-02-19 21:20:00,37.2,29.7,29.94,West,259,0.0,0.0,74,0.00,CLR,OVC,0.20,WeatherDisplay:10.37,2013-02-20 02:20:00,
2013-02-19 21:25:00,37.2,30.0,29.94,West,259,0.0,0.0,75,0.00,CLR,OVC,0.20,WeatherDisplay:10.37,2013-02-20 02:25:00,
2013-02-19 21:30:00,37.0,29.8,29.94,West,259,0.0,0.0,75,0.00,CLR,OVC,0.20,WeatherDisplay:10.37,2013-02-20 02:30:00,
2013-02-19 21:40:00,36.9,29.7,29.97,West,259,0.0,0.0,75,0.00,CLR,OVC,0.20,WeatherDisplay:10.37,2013-02-20 02:40:00,
2013-02-19 21:50:00,36.7,29.5,29.97,West,259,0.0,0.0,75,0.00,CLR,OVC,0.20,WeatherDisplay:10.37,2013-02-20 02:50:00,
2013-02-19 22:00:00,36.5,29.3,29.97,West,259,0.0,0.0,75,0.00,CLR,OVC,0.20,WeatherDisplay:10.37,2013-02-20 03:00:00,
2013-02-19 22:05:00,36.3,29.2,29.97,West,259,0.0,0.0,75,0.00,CLR,OVC,0.20,WeatherDisplay:10.37,2013-02-20 03:05:00,
2013-02-19 22:10:00,36.1,29.0,29.97,West,259,0.0,0.0,75,0.00,CLR,OVC,0.20,WeatherDisplay:10.37,2013-02-20 03:10:00,
2013-02-19 22:20:00,35.8,28.6,29.97,West,259,0.0,0.0,75,0.00,CLR,OVC,0.20,WeatherDisplay:10.37,2013-02-20 03:20:00,
2013-02-19 22:30:00,35.4,28.2,29.97,West,259,0.0,0.0,75,0.00,CLR,OVC,0.20,WeatherDisplay:10.37,2013-02-20 03:30:00,
2013-02-19 22:40:00,34.9,27.8,29.97,West,259,0.0,0.0,75,0.00,CLR,OVC,0.20,WeatherDisplay:10.37,2013-02-20 03:40:00,
2013-02-19 22:50:00,34.9,28.1,29.97,West,259,0.0,0.0,76,0.00,CLR,OVC,0.20,WeatherDisplay:10.37,2013-02-20 03:50:00,
2013-02-19 23:00:00,34.7,27.9,29.97,West,263,0.0,0.0,76,0.00,CLR,OVC,0.20,WeatherDisplay:10.37,2013-02-20 04:00:00,
2013-02-19 23:05:00,34.7,27.9,29.97,West,277,0.0,0.0,76,0.00,CLR,OVC,0.20,WeatherDisplay:10.37,2013-02-20 04:05:00,
2013-02-19 23:10:00,34.6,27.8,29.97,WNW,292,0.0,0.0,76,0.00,CLR,OVC,0.20,WeatherDisplay:10.37,2013-02-20 04:10:00,
2013-02-19 23:20:00,34.3,27.6,29.97,West,281,0.0,0.0,76,0.00,CLR,OVC,0.20,WeatherDisplay:10.37,2013-02-20 04:20:00,
2013-02-19 23:30:00,34.0,27.3,29.97,West,271,0.0,0.0,76,0.00,CLR,OVC,0.20,WeatherDisplay:10.37,2013-02-20 04:30:00,
2013-02-19 23:40:00,34.0,27.2,30.00,West,266,0.0,0.0,76,0.00,CLR,OVC,0.20,WeatherDisplay:10.37,2013-02-20 04:40:00,
2013-02-19 23:50:00,34.0,27.2,30.00,WNW,294,0.0,0.0,76,0.00,CLR,OVC,0.20,WeatherDisplay:10.37,2013-02-20 04:50:00,